Other Public Products
Issued by NWS Grand Forks, ND

Home | Current Version | Previous Version | Text Only | Print | Product List | Glossary Off
Versions: 1 2 3 4 5 6 7 8 9 10 11 12 13 14 15 16 17 18 19 20 21 22 23 24 25 26 27 28 29 30 31 32 33 34 35 36 37 38 39 40 41 42 43 44 45 46 47 48 49 50

000
FPUS83 KFGF 280431
OPUFGF
PRAIRIE TO PINES WEATHER ROUNDUP
NATIONAL WEATHER SERVICE EASTERN NORTH DAKOTA/GRAND FORKS ND
1100 PM CDT TUE SEP 27 2016

 **SATELLITE DATA USED TO AUGMENT SKY COVER AT AUTOMATED STATIONS**
 *****  WEATHER ACROSS EASTERN NORTH DAKOTA  *****

CITY           SKY/WX    TMP DP  RH WIND       PRES   REMARKS
GRAND FORKS    CLOUDY    52  44  74 NE9       30.03R
GRAND FORKS AF CLOUDY    52  45  76 NE7       30.04R
GRAND CITY NWS   N/A     48 N/A N/A NE5         N/A
BUXTON           N/A     57  54  89 NE9         N/A
DEVILS LAKE    CLEAR     45  42  89 CALM      30.04R
FARGO          CLOUDY    52  43  71 NE9       30.00R
WAHPETON ARPT  CLOUDY    50  41  71 NE13G21   30.00R
$$

 *****  WEATHER ACROSS CENTRAL AND WESTERN NORTH DAKOTA  *****

CITY           SKY/WX    TMP DP  RH WIND       PRES   REMARKS
JAMESTOWN      CLOUDY    42  38  85 CALM      30.02R
BISMARCK       CLEAR     48  43  82 E7        30.02R
MINOT          CLEAR     50  43  77 CALM      30.01R
MINOT AFB      CLEAR     47  42  80 S3        30.00R
GARRISON         N/A     51  44  77 E3        30.01R
WILLISTON      CLEAR     53  49  86 CALM      29.98R
DICKINSON      CLEAR     52  45  77 S6        30.01R
HETTINGER      CLEAR     49  45  86 CALM      30.04R
$$

 *****  OTHER OBSERVATIONS NORTHEAST NORTH DAKOTA  *****

CITY           SKY/WX    TMP DP  RH WIND       PRES   REMARKS
WALHALLA       FAIR      50  46  87 NE5       30.07R
LANGDON        CLOUDY    45  45 100 E5        30.06R
CAVALIER       CLOUDY    50  45  81 E6        30.06R
GRAFTON        CLOUDY    50  46  87 NE6       30.07R
CANDO          FAIR      41  41 100 E6        30.07R
FORT TOTTEN      N/A     48  45  88 E2        29.95S
ROLLA          FAIR      39  37  93 NW3       30.06R
RUGBY          FAIR      46  41  81 E12       30.03R
 ***** THE ABOVE OBSERVATIONS ARE NON NWS ARE NOT QUALITY
        CONTROLLED AND MAY MIS-REPORT RAIN FOR SNOW...
$$

 *****  OTHER OBSERVATIONS SOUTHEAST NORTH DAKOTA *****

CITY           SKY/WX    TMP DP  RH WIND       PRES   REMARKS
COOPERSTOWN    FAIR      39  39 100 CALM      30.04R
VALLEY CITY    FAIR      43  43 100 N5        30.04R
OAKES          NOT AVBL
GWINNER        FAIR      45  41  87 N6        30.01R
SHEYENNE NWR     N/A     47  42  82 N2        29.95
BUFFALO          N/A     47  43  86 N5          N/A
WYNDMERE         N/A     46  45  93 N3          N/A
 ***** THE ABOVE OBSERVATIONS ARE NON NWS ARE NOT QUALITY
       CONTROLLED AND MAY MIS-REPORT RAIN FOR SNOW...
$$

  *****  WEATHER ACROSS NORTHERN MINNESOTA  *****

CITY           SKY/WX    TMP DP  RH WIND       PRES   REMARKS
FLAG ISLAND    CLOUDY    52  46  82 N10       30.02R
WARROAD        CLOUDY    48  45  87 N6        30.02R
ROSEAU         CLOUDY    45  39  81 N6        30.03R
HALLOCK        CLOUDY    48  45  87 CALM      30.05R
THF RVR FALLS    N/A     49  41  74 N12       30.03R
HALSTAD          N/A     48  43  81 NE7         N/A
FOSSTON        CLOUDY    39  37  93 N3        30.01R
BAUDETTE       CLOUDY    49  45  86 N3        30.01R
WASKISH        CLOUDY    46  45  93 N8        30.00R
CROOKSTON      CLOUDY    46  43  87 CALM      30.04R
$$
  *****  WEATHER ACROSS CENTRAL AND WEST MINNESOTA  *****

CITY           SKY/WX    TMP DP  RH WIND       PRES   REMARKS
BEMIDJI        CLEAR     39  39  99 W5        29.99R
PARK RAPIDS    PTCLDY    46  41  82 N8        29.97R
WADENA         MOCLDY    45  41  87 N5        29.97R
DETROIT LAKES  MOCLDY    46  43  87 N6        30.01R
MOORHEAD       CLOUDY    50  43  76 NE8       30.02R
FERGUS FALLS   CLOUDY    48  41  76 NE10G18   30.01R
ELBOW LAKE     CLOUDY    49  43  80 E13       29.98R
MORRIS MN      MOCLDY    52  45  76 N8        29.96R
STAPLES        PTCLDY    45  43  93 N7        29.96S
WHEATON        CLOUDY    50  45  81 N5        30.00R
$$
  *****  WEATHER ELSEWHERE ACROSS MINNESOTA  *****

CITY           SKY/WX    TMP DP  RH WIND       PRES   REMARKS
DULUTH         CLOUDY    50  48  93 N14G21    29.87R
INTRNTL FALLS  CLOUDY    51  46  83 N9        29.96R
ELY            CLOUDY    48  48 100 N5        29.90R
CLOQUET        CLOUDY    48  45  87 N14G20    29.88S
BRAINERD       MOCLDY    47  44  90 N12       29.94S
HIBBING        CLOUDY    48  46  93 N15G22    29.91R
ALEXANDRIA     MOCLDY    47  42  83 N15G22    29.98R
SAINT CLOUD    PTCLDY    45  44  97 NW7       29.93R
MINNEAPOLIS    CLOUDY    50  45  83 N10       29.89S
$$

  *****  WEATHER ACROSS SOUTH DAKOTA  *****

CITY           SKY/WX    TMP DP  RH WIND       PRES   REMARKS
SIOUX FALLS    CLEAR     54  37  52 N9        29.92R
BROOKINGS      CLEAR     47  36  65 NE5       29.95R
WATERTOWN      CLEAR     43  37  79 N7        29.97R
HURON          CLEAR     50  39  66 N6        29.96R
SISSETON         N/A     45  41  86 N7        29.98R
ABERDEEN       CLOUDY    47  33  58 NE7       29.99R
MITCHELL       CLEAR     51  41  68 NW7       29.95R
PIERRE         CLEAR     56  42  59 E9        29.97R
MOBRIDGE       CLEAR     59  41  51 E6        29.98R
RAPID CITY     CLEAR     62  41  46 N12       30.07R
$$

  *****  SOME WEATHER IN NEARBY STATES *****

CITY           SKY/WX    TMP DP  RH WIND       PRES   REMARKS
GLASGOW MT     CLEAR     60  48  64 NW7       30.00R
GREAT FALLS MT CLOUDY    54  43  66 N8        30.23R
CHEYENNE WY    CLEAR     53  28  38 W3        30.25R
SCOTTSBLUFF NE CLEAR     56  42  59 CALM      30.11R
OMAHA NE       CLEAR     60  51  72 CALM      29.87S
DES MOINES IA  PTCLDY    62  48  60 NW3       29.82S
DAVENPORT IA   CLOUDY    55  45  68 N3        29.79R
CHICAGO IL     CLOUDY    56  46  69 N9G20     29.79S
EAU CLAIRE WI  CLOUDY    48  46  93 NW7       29.83R
LA CROSSE WI   CLOUDY    52  47  83 NW13      29.82R
$$

  *****  SOME NATIONAL WEATHER *****

CITY           SKY/WX    TMP DP  RH WIND       PRES   REMARKS
LA GUARDIA NY  PTCLDY    69  61  75 S3        29.97R
RALEIGH NC     CLOUDY    73  70  90 S3        29.92R
ATLANTA GA     MOCLDY    71  69  93 SW6       29.93F
NEW ORLEANS LA MOCLDY    81  73  76 CALM      29.96R
OKLAHOMA CITY  CLEAR     62  50  64 SW6       30.01S
ALBUQUERQUE NM CLEAR     63  39  41 SE8       30.21R
SALT LAKE CITY CLEAR     64  52  64 CALM      30.14S
LOS ANGELES CA MOCLDY    81  47  30 NW8       29.87R
BOISE ID       CLEAR     68  45  43 SE5       30.00R
SEATTLE WA     CLEAR     57  42  57 N8        30.15R
$$

*** WEATHER ACROSS MANITOBA...SASKATCHEWAN AND ONTARIO ***
                ***ONTARIO***

CITY           SKY/WX    TMP DP  RH WIND       PRES   REMARKS
GERALDTON      CLOUDY    52  50  93 NE10      29.90R
THUNDER BAY    MOCLDY    54  48  82 N8        29.84R
SIOUX LOOKOUT  CLOUDY    50  50 100 N6        29.98R
TORONTO        MOCLDY    61  41  48 S2        29.86R
BIG TROUT LK   CLOUDY    50  50 100 N2        30.04  FOG
PICKLE LAKE    NOT AVBL
DRYDEN         CLOUDY    50  48  93 N5        29.99R
KENORA         CLOUDY    46  46 100 N5        30.02R
$$
                *** MANITOBA***

CITY           SKY/WX    TMP DP  RH WIND       PRES   REMARKS
BRANDON        CLEAR     39  37  93 NE5       30.06R
DAUPHIN        CLEAR     37  36  93 W2        30.05R
ISLAND LAKE    CLOUDY    46  45  93 CALM      30.07R
PILOT MOUND      N/A     41  39  93 E7          N/A
THE PAS        CLEAR     43  41  93 SE10      30.02R
THOMPSON       DRIZZLE   45  41  87 S5        30.04R
WINNIPEG       MOCLDY    46  43  87 NE5       30.06R
LYNN LAKE      CLOUDY    45  41  87 SW8       29.97R
CHURCHILL      CLOUDY    43  43 100 SW3       30.00S
GILLAM         FOG       45  43  93 SW3       30.04R VSB 1
$$
                ***SASKATCHEWAN***

CITY           SKY/WX    TMP DP  RH WIND       PRES   REMARKS
ESTEVAN        PTCLDY    52  43  71 E8        30.00R
KINDERSLEY     MOCLDY    46  39  76 NW8       30.18R
LLOYDMINSTER   CLEAR     41  34  75 W6        30.19R
PRINCE ALBERT  PTCLDY    55  45  67 N9G17     30.07R
REGINA         CLEAR     55  46  71 W15G23    29.99R
YORKTON        CLEAR     48  37  66 SE6       30.00R  C1F1C2F2C3F3C4F4C5F5C6F6C7F7C8F8C9F9CaFaCbFbCcFcCdFdCe!



USA.gov is the U.S. government's official web portal to all federal, state and local government web resources and services.